Weather in Pato Branco

Brazil     26°13′37″S   52°40′45″W
В апреле 2022 года жителям России запретили посещать сайт meteo.paraplan.net по решению Генеральной прокуратуры. Аудитория сайта уменьшилась в 10 раз. Владельцы сайта не видят смысла в поддержке погодного сервера в таких условиях. Сайт будет закрыт в октябре.
temp.,
°C
wind,
m/s
gust,
m/s
humid.,
%
clouds,
%
prec.,
mm/h
press.,
hPa
HPBL,
m
25 september, sun
sun2500:00+13ene227299 0.0 101634
03:00+13ese1176100 0.0 101510
06:00+12ne41187100 0.3 1017407
09:00+14ne41187100 0.4 1017435
12:00+14nne2695100 4.3 1017397
15:00+13ese2499100 20.3 1015170
18:00+13ene1199100 18.0 101770
21:00+13ene24100100 19.6 1017135
26 september, mon
mon2600:00+13ne3998100 1.2 1016334
03:00+12n2799100 1.3 1014218
06:00+12ne1698100 0.0 1016167
09:00+16nne2492100 0.0 1017334
12:00+16nnw3794100 0.2 1017439
15:00+16nnw1393100 0.3 1014309
18:00+16nne1197100 0.0 101421
21:00+15e1198100 0.1 101613
27 september, tue
tue2700:00+14ese1199100 0.0 101711
03:00+15ene1199100 0.0 101525
06:00+15e1198100 0.1 101621
09:00+17ese1294100 0.1 1017136
12:00+19ne2387100 0.0 1017462
15:00+18nne2388100 0.2 1015440
18:00+17nne1598100 0.3 1016237
21:00+16ene2699100 1.6 1016195
28 september, wed
wed2800:00+15ese1197100 0.1 101711
03:00+15ene1497100 0.1 1016129
06:00+15ese2798100 0.0 1016262
09:00+16ene3791100 0.0 1018560
12:00+16ene4888100 0.1 1019689
15:00+15e2896100 1.1 1017523
18:00+14e41196100 1.8 1017613
21:00+14e3129297 1.9 1018619
29 september, thu
thu2900:00+13ene31192100 0.0 1019637
03:00+11ene3987100 0.0 1018405
06:00+11ene41193100 0.0 1018530
09:00+15ne5979100 0.0 1019672
12:00+18ne5771100 0.0 10181036
15:00+17ene4781100 0.1 1017840
18:00+15ene41085100 0.0 1017639
21:00+15ene41283100 0.0 1018683